Date String (YYYY-MM-DD hh:mm:ss) UTC,Instrument flags,Ambient pressure (hPa),Sample flow (lpm),Bypass flow (lpm),Sample temperature (°C),Ambient temperature (°C),ASC tube jacket temperature (°C),LED temperature (°C),Box temperature (°C),Sample RH (%),Span deviation,Mass concentration (μg/m³),Mass concentration (μg/m³),Mass concentration (μg/m³)
DateTimeUTC,F1_M11,P_M11,Q1_M11,Q2_M11,T1_M11,T2_M11,T3_M11,T4_M11,T5_M11,U1_M11,ZSPAN_M11,X0_M11,X2_M11,X1_M11
2022-04-22 04:00:00,,0818.4,5.00,0.00,29.6,28.2,00.0,38.6,31.4,11.7,0003.6,0023.97,0008.92,0005.85
2022-04-22 04:01:00,,0818.4,5.01,0.00,29.6,28.3,00.0,38.6,31.4,11.6,0003.8,0024.48,0008.99,0005.86
2022-04-22 04:02:00,,0818.4,4.99,0.00,29.6,28.4,00.0,38.6,31.4,10.9,0003.6,0025.12,0009.08,0005.86
2022-04-22 04:03:00,,0818.4,5.02,0.00,29.7,28.5,00.0,38.6,31.5,09.6,0003.2,0024.93,0009.03,0005.82
2022-04-22 04:04:00,,0818.5,4.99,0.00,29.7,28.6,00.0,38.6,31.5,09.4,0003.2,0024.28,0008.95,0005.78
2022-04-22 04:05:00,,0818.5,4.99,0.00,29.7,28.7,00.0,38.6,31.6,09.8,0002.8,0023.60,0008.90,0005.77
2022-04-22 04:06:00,,0818.4,5.02,0.00,29.8,28.7,00.0,38.6,31.6,09.2,0002.2,0024.35,0008.87,0005.76
2022-04-22 04:07:00,,0818.4,4.99,0.00,29.8,28.8,00.0,38.6,31.6,09.4,0002.7,0024.41,0008.79,0005.74
2022-04-22 04:08:00,,0818.4,4.99,0.00,29.8,28.8,00.0,38.6,31.6,09.3,0002.5,0025.09,0008.71,0005.70
2022-04-22 04:09:00,,0818.4,5.01,0.00,29.8,28.9,00.0,38.7,31.7,09.2,0001.8,0025.09,0008.69,0005.65
2022-04-22 04:10:00,,0818.4,5.00,0.00,29.9,28.9,00.0,38.7,31.7,09.2,0001.8,0024.32,0008.55,0005.62
2022-04-22 04:11:00,,0818.4,4.99,0.00,29.9,29.0,00.0,38.7,31.7,09.1,0000.5,0023.89,0008.38,0005.56
2022-04-22 04:12:00,,0818.4,5.02,0.00,29.9,29.0,00.0,38.7,31.7,08.9,0000.8,0023.26,0008.16,0005.48
2022-04-22 04:13:00,,0818.4,4.98,0.00,29.9,29.0,00.0,38.7,31.7,08.5,-000.0,0021.83,0007.84,0005.39
2022-04-22 04:14:00,,0818.3,5.02,0.00,29.9,29.0,00.0,38.8,31.7,08.4,0000.0,0021.37,0007.68,0005.32
2022-04-22 04:15:00,,0818.3,4.99,0.00,30.0,29.0,00.0,38.8,31.8,08.4,0000.0,0020.47,0007.63,0005.27
2022-04-22 04:16:00,,0818.3,4.99,0.00,30.0,29.0,00.0,38.8,31.8,08.3,0000.0,0019.96,0007.50,0005.21
2022-04-22 04:17:00,,0818.2,5.00,0.00,30.0,29.0,00.0,38.8,31.8,09.1,-000.3,0019.55,0007.56,0005.19
2022-04-22 04:18:00,,0818.2,5.00,0.00,30.0,29.0,00.0,38.8,31.8,09.2,-000.6,0018.92,0007.56,0005.20
2022-04-22 04:19:00,,0818.3,5.00,0.00,30.0,29.0,00.0,38.8,31.7,09.2,-000.1,0018.42,0007.53,0005.18
2022-04-22 04:20:00,,0818.3,5.01,0.00,30.0,29.0,00.0,38.9,31.7,09.1,0000.9,0018.66,0007.48,0005.19
2022-04-22 04:21:00,,0818.3,4.98,0.00,30.0,29.0,00.0,38.9,31.7,09.1,0000.5,0018.69,0007.52,0005.18
2022-04-22 04:22:00,,0818.2,5.00,0.00,30.0,29.0,00.0,38.9,31.7,08.7,0000.0,0018.66,0007.53,0005.15
2022-04-22 04:23:00,,0818.2,5.01,0.00,30.0,29.0,00.0,38.9,31.7,08.3,-000.0,0019.08,0007.52,0005.12
2022-04-22 04:24:00,,0818.1,4.99,0.00,30.0,29.1,00.0,38.9,31.8,08.5,-000.1,0020.32,0007.58,0005.11
2022-04-22 04:25:00,,0818.1,5.00,0.00,30.0,29.1,00.0,38.9,31.8,08.5,0000.5,0020.47,0007.56,0005.13
2022-04-22 04:26:00,,0818.2,5.01,0.00,30.0,28.6,00.0,38.9,31.7,08.5,0001.3,0021.22,0007.59,0005.14
2022-04-22 04:27:00,,0818.2,4.98,0.00,29.9,26.4,00.0,38.9,31.2,08.6,0003.2,0021.48,0007.66,0005.15
2022-04-22 04:28:00,,0818.1,5.01,0.00,29.7,25.6,00.0,38.8,31.0,08.8,0003.7,0021.47,0007.65,0005.14
2022-04-22 04:29:00,,0818.2,5.00,0.00,29.6,25.9,00.0,38.8,31.0,08.3,0001.9,0021.49,0007.56,0005.09
2022-04-22 04:30:00,,0818.2,4.99,0.00,29.6,26.4,00.0,38.7,31.1,07.7,0002.1,0020.72,0007.48,0005.04
2022-04-22 04:31:00,,0818.1,5.01,0.00,29.6,26.8,00.0,38.7,31.1,07.9,0002.2,0019.74,0007.38,0004.98
2022-04-22 04:32:00,,0818.1,4.98,0.00,29.6,27.2,00.0,38.6,31.2,07.5,0001.8,0018.82,0007.21,0004.90
2022-04-22 04:33:00,,0818.0,5.00,0.00,29.6,27.5,00.0,38.6,31.3,07.5,0002.0,0018.69,0007.02,0004.85
2022-04-22 04:34:00,,0818.1,5.00,0.00,29.6,27.7,00.0,38.6,31.3,08.0,0002.2,0018.47,0007.03,0004.83
2022-04-22 04:35:00,,0818.1,4.99,0.00,29.6,28.0,00.0,38.6,31.3,08.1,0003.0,0017.98,0007.08,0004.83
2022-04-22 04:36:00,,0818.1,5.00,0.00,29.6,28.1,00.0,38.6,31.4,08.1,0002.9,0017.70,0007.13,0004.81
2022-04-22 04:37:00,,0818.1,4.99,0.00,29.6,28.3,00.0,38.6,31.4,08.1,0000.6,0016.88,0007.12,0004.79
2022-04-22 04:38:00,,0818.1,5.01,0.00,29.7,28.4,00.0,38.6,31.4,07.7,0000.0,0016.05,0007.00,0004.73
2022-04-22 04:39:00,,0818.1,4.99,0.00,29.7,28.5,00.0,38.6,31.5,07.8,0000.4,0015.70,0006.90,0004.68
2022-04-22 04:40:00,,0818.1,5.00,0.00,29.7,28.5,00.0,38.6,31.5,07.8,0001.1,0016.28,0006.92,0004.65
2022-04-22 04:41:00,,0818.1,5.00,0.00,29.7,28.6,00.0,38.6,31.5,08.1,0000.0,0016.27,0006.93,0004.65
2022-04-22 04:42:00,,0818.1,4.99,0.00,29.8,28.7,00.0,38.6,31.5,08.3,0000.8,0016.52,0007.03,0004.66
2022-04-22 04:43:00,,0818.1,5.02,0.00,29.8,28.7,00.0,38.6,31.5,08.3,0000.1,0017.16,0007.14,0004.68
2022-04-22 04:44:00,,0818.0,4.99,0.00,29.8,28.7,00.0,38.7,31.6,08.4,0000.0,0017.08,0007.25,0004.70
2022-04-22 04:45:00,,0818.0,5.01,0.00,29.8,28.8,00.0,38.7,31.6,08.5,0000.0,0017.42,0007.24,0004.71
2022-04-22 04:46:00,,0818.0,4.98,0.00,29.8,28.8,00.0,38.7,31.6,08.6,0000.0,0018.05,0007.21,0004.72
2022-04-22 04:47:00,,0818.1,5.01,0.00,29.8,28.8,00.0,38.7,31.6,08.2,0000.0,0018.72,0007.16,0004.71
2022-04-22 04:48:00,,0818.0,5.01,0.00,29.8,28.9,00.0,38.7,31.6,08.3,0000.0,0019.50,0007.19,0004.70
2022-04-22 04:49:00,,0818.0,4.99,0.00,29.8,28.9,00.0,38.7,31.6,08.5,0000.0,0020.06,0007.28,0004.74
2022-04-22 04:50:00,,0818.0,5.01,0.00,29.9,28.9,00.0,38.7,31.7,08.6,0000.0,0020.11,0007.33,0004.78
2022-04-22 04:51:00,,0818.0,4.99,0.00,29.9,28.9,00.0,38.7,31.7,08.8,0000.0,0019.76,0007.40,0004.80
2022-04-22 04:52:00,,0818.0,5.00,0.00,29.9,28.9,00.0,38.7,31.7,08.9,0000.0,0019.89,0007.44,0004.83
2022-04-22 04:53:00,,0818.0,5.01,0.00,29.8,28.9,00.0,38.8,31.6,08.8,0000.0,0020.69,0007.45,0004.87
2022-04-22 04:54:00,,0818.0,4.99,0.00,29.8,28.9,00.0,38.7,31.6,08.8,0000.0,0020.39,0007.44,0004.89
2022-04-22 04:55:00,,0818.0,5.00,0.00,29.8,28.9,00.0,38.7,31.6,08.7,0000.0,0021.07,0007.41,0004.89
2022-04-22 04:56:00,,0818.0,5.01,0.00,29.8,28.9,00.0,38.8,31.5,08.7,0000.0,0021.27,0007.38,0004.89
2022-04-22 04:57:00,,0818.0,4.98,0.00,29.8,28.9,00.0,38.7,31.5,08.7,0000.0,0021.02,0007.46,0004.89
2022-04-22 04:58:00,,0818.0,5.01,0.00,29.8,28.9,00.0,38.7,31.5,08.9,0000.0,0020.22,0007.47,0004.91
2022-04-22 04:59:00,,0818.0,4.99,0.00,29.8,28.9,00.0,38.7,31.5,08.9,0000.0,0019.68,0007.47,0004.91
